QTR4X OTHH-OPKC

Flight info

Callsign QTR4X
Flight time N/A
Altitude 39000
Route KUPRO N300 GIDOB DCT TONVO A777 NADSO B524 ALPOR G216 LAKIV
Aircraft A35K/H-SDE2E3GHIJ3J4J5LM1ORWXY/LB1D1

Departure

Time N/A
Airport Hamad International Airport (OTHH)

Arrival

Time 2026-05-07 08:39
Airport Jinnah International Airport (OPKC)
Time Latitude Longitude Altitude Speed Heading
2026-05-07 08:04 24.41058 63.83010 38802 ft 524 kts 81°
2026-05-07 08:05 24.41554 63.87014 38796 ft 525 kts 81°
2026-05-07 08:05 24.42530 63.94953 38797 ft 525 kts 81°
2026-05-07 08:06 24.43498 64.02887 38797 ft 525 kts 81°
2026-05-07 08:06 24.44462 64.10824 38797 ft 525 kts 81°
2026-05-07 08:07 24.45415 64.18708 38798 ft 525 kts 81°
2026-05-07 08:07 24.46370 64.26647 38800 ft 525 kts 81°
2026-05-07 08:08 24.47320 64.34580 38800 ft 525 kts 81°
2026-05-07 08:08 24.48266 64.42519 38797 ft 525 kts 81°
2026-05-07 08:09 24.49209 64.50470 38797 ft 525 kts 81°
2026-05-07 08:09 24.50082 64.57867 38796 ft 525 kts 81°
2026-05-07 08:10 24.51016 64.65816 38797 ft 525 kts 81°
2026-05-07 08:10 24.51946 64.73766 38799 ft 525 kts 81°
2026-05-07 08:11 24.52872 64.81720 38799 ft 525 kts 81°
2026-05-07 08:11 24.53621 64.89696 38798 ft 525 kts 84°
2026-05-07 08:12 24.54216 64.97694 38805 ft 525 kts 83°
2026-05-07 08:12 24.54559 65.01671 38458 ft 521 kts 83°
2026-05-07 08:12 24.54897 65.05643 37539 ft 525 kts 83°
2026-05-07 08:12 24.55228 65.09648 36616 ft 529 kts 83°
2026-05-07 08:13 24.55553 65.13693 35748 ft 533 kts 83°
2026-05-07 08:13 24.55874 65.17754 34952 ft 535 kts 83°
2026-05-07 08:13 24.56190 65.21817 34341 ft 532 kts 83°
2026-05-07 08:13 24.56500 65.25854 33815 ft 528 kts 83°
2026-05-07 08:14 24.56805 65.29854 33239 ft 524 kts 83°
2026-05-07 08:14 24.57105 65.33827 32706 ft 519 kts 83°
2026-05-07 08:14 24.57400 65.37764 32175 ft 515 kts 83°
2026-05-07 08:14 24.57691 65.41670 31652 ft 511 kts 83°
2026-05-07 08:15 24.57975 65.45491 31141 ft 507 kts 82°
2026-05-07 08:15 24.58264 65.49385 30635 ft 503 kts 82°
2026-05-07 08:15 24.58542 65.53147 30140 ft 499 kts 82°
2026-05-07 08:15 24.58820 65.56933 29597 ft 495 kts 82°
2026-05-07 08:16 24.59095 65.60684 29073 ft 490 kts 82°
2026-05-07 08:16 24.59366 65.64400 28582 ft 485 kts 82°
2026-05-07 08:16 24.59633 65.68074 28090 ft 480 kts 82°
2026-05-07 08:16 24.59897 65.71713 27606 ft 475 kts 82°
2026-05-07 08:17 24.60157 65.75311 27121 ft 470 kts 82°
2026-05-07 08:17 24.60413 65.78871 26645 ft 465 kts 82°
2026-05-07 08:17 24.60666 65.82393 26170 ft 460 kts 82°
2026-05-07 08:17 24.60915 65.85884 25700 ft 456 kts 81°
2026-05-07 08:18 24.61162 65.89342 25227 ft 452 kts 81°
2026-05-07 08:18 24.61405 65.92760 24762 ft 447 kts 81°
2026-05-07 08:18 24.61646 65.96156 24292 ft 443 kts 81°
2026-05-07 08:18 24.61883 65.99516 23822 ft 439 kts 81°
2026-05-07 08:19 24.62119 66.02849 23346 ft 436 kts 81°
2026-05-07 08:19 24.62351 66.06153 22822 ft 431 kts 81°
2026-05-07 08:19 24.62579 66.09414 22350 ft 425 kts 82°
2026-05-07 08:19 24.62803 66.12628 21896 ft 419 kts 82°
2026-05-07 08:20 24.63023 66.15800 21439 ft 413 kts 82°
2026-05-07 08:20 24.63166 66.17874 21137 ft 410 kts 82°
2026-05-07 08:20 24.63452 66.22014 20569 ft 402 kts 82°
2026-05-07 08:20 24.63661 66.25060 20113 ft 397 kts 83°
2026-05-07 08:21 24.63867 66.28073 19687 ft 393 kts 83°
2026-05-07 08:21 24.64070 66.31049 19255 ft 388 kts 83°
2026-05-07 08:21 24.64203 66.32999 18976 ft 385 kts 83°
2026-05-07 08:21 24.64464 66.36836 18419 ft 380 kts 84°
2026-05-07 08:22 24.64657 66.39677 17989 ft 376 kts 84°
2026-05-07 08:22 24.64848 66.42524 17542 ft 371 kts 84°
2026-05-07 08:22 24.65036 66.45328 17131 ft 365 kts 83°
2026-05-07 08:22 24.65220 66.48089 16729 ft 359 kts 83°
2026-05-07 08:23 24.65400 66.50808 16335 ft 354 kts 83°
2026-05-07 08:23 24.65574 66.53427 15949 ft 349 kts 83°
2026-05-07 08:23 24.65693 66.55219 15684 ft 346 kts 83°
2026-05-07 08:23 24.65864 66.57798 15326 ft 341 kts 82°
2026-05-07 08:24 24.66099 66.61261 14837 ft 338 kts 82°
2026-05-07 08:24 24.66213 66.62965 14591 ft 337 kts 82°
2026-05-07 08:24 24.66442 66.66390 14083 ft 335 kts 82°
2026-05-07 08:24 24.66613 66.68936 13707 ft 333 kts 82°
2026-05-07 08:25 24.66782 66.71462 13310 ft 330 kts 82°
2026-05-07 08:25 24.66894 66.73129 13049 ft 329 kts 82°
2026-05-07 08:25 24.67062 66.75634 12683 ft 328 kts 82°
2026-05-07 08:25 24.67229 66.78135 12308 ft 327 kts 82°
2026-05-07 08:26 24.67559 66.83104 11572 ft 325 kts 82°
2026-05-07 08:26 24.67722 66.85574 11209 ft 323 kts 83°
2026-05-07 08:26 24.67884 66.88034 10838 ft 322 kts 83°
2026-05-07 08:27 24.68043 66.90467 10626 ft 313 kts 83°
2026-05-07 08:27 24.68191 66.92798 10522 ft 299 kts 83°
2026-05-07 08:27 24.68329 66.95028 10394 ft 286 kts 82°
2026-05-07 08:27 24.68464 66.97195 10169 ft 282 kts 83°
2026-05-07 08:28 24.68608 66.99338 9866 ft 281 kts 82°
2026-05-07 08:28 24.68829 67.01481 9592 ft 288 kts 78°
2026-05-07 08:28 24.69217 67.03691 9483 ft 298 kts 73°
2026-05-07 08:28 24.69789 67.05863 9176 ft 294 kts 68°
2026-05-07 08:29 24.70568 67.07935 8708 ft 293 kts 61°
2026-05-07 08:29 24.71527 67.09906 8371 ft 292 kts 57°
2026-05-07 08:29 24.72549 67.11828 8074 ft 290 kts 57°
2026-05-07 08:29 24.73578 67.13732 7803 ft 290 kts 56°
2026-05-07 08:30 24.74609 67.15638 7517 ft 291 kts 55°
2026-05-07 08:30 24.75649 67.17558 7215 ft 292 kts 56°
2026-05-07 08:30 24.76687 67.19476 6918 ft 291 kts 57°
2026-05-07 08:30 24.77719 67.21389 6629 ft 290 kts 56°
2026-05-07 08:31 24.78751 67.23297 6331 ft 289 kts 58°
2026-05-07 08:31 24.79774 67.25194 6026 ft 287 kts 58°
2026-05-07 08:31 24.80792 67.27084 5731 ft 287 kts 57°
2026-05-07 08:31 24.81465 67.28332 5555 ft 287 kts 58°
2026-05-07 08:32 24.82826 67.30859 5147 ft 286 kts 58°
2026-05-07 08:32 24.83839 67.32740 4864 ft 285 kts 58°
2026-05-07 08:32 24.84853 67.34617 4595 ft 285 kts 57°
2026-05-07 08:32 24.85994 67.36357 4426 ft 284 kts 46°
2026-05-07 08:33 24.87454 67.37788 4197 ft 280 kts 31°
2026-05-07 08:33 24.89176 67.38751 3924 ft 275 kts 15°
2026-05-07 08:33 24.90985 67.39186 3657 ft 271 kts
2026-05-07 08:33 24.92841 67.39120 3460 ft 260 kts 348°
2026-05-07 08:34 24.94527 67.38601 3356 ft 247 kts 335°
2026-05-07 08:34 24.95884 67.37567 3241 ft 230 kts 305°
2026-05-07 08:34 24.96366 67.36016 3125 ft 206 kts 268°
2026-05-07 08:34 24.95906 67.34632 3036 ft 183 kts 241°
2026-05-07 08:35 24.95328 67.33481 3027 ft 164 kts 244°
2026-05-07 08:35 24.94817 67.32379 2791 ft 159 kts 249°
2026-05-07 08:35 24.94430 67.31280 2543 ft 150 kts 252°
2026-05-07 08:35 24.94129 67.30223 2340 ft 138 kts 253°
2026-05-07 08:36 24.93868 67.29257 2163 ft 126 kts 252°
2026-05-07 08:36 24.93633 67.28331 2001 ft 125 kts 252°
2026-05-07 08:36 24.93393 67.27389 1860 ft 131 kts 253°
2026-05-07 08:36 24.93145 67.26411 1659 ft 130 kts 253°
2026-05-07 08:37 24.92906 67.25469 1514 ft 127 kts 251°
2026-05-07 08:37 24.92665 67.24525 1353 ft 129 kts 251°
2026-05-07 08:37 24.92423 67.23573 1197 ft 129 kts 252°
2026-05-07 08:37 24.92182 67.22624 1042 ft 130 kts 256°
2026-05-07 08:38 24.91938 67.21659 869 ft 130 kts 256°
2026-05-07 08:38 24.91698 67.20711 715 ft 127 kts 255°
2026-05-07 08:38 24.91460 67.19773 575 ft 128 kts 255°
2026-05-07 08:38 24.91219 67.18836 356 ft 125 kts 251°
2026-05-07 08:39 24.90986 67.17923 221 ft 125 kts 254°
2026-05-07 08:39 24.90754 67.17005 122 ft 123 kts 253°
2026-05-07 08:39 24.90548 67.16194 110 ft 84 kts 254°
2026-05-07 08:39 24.90470 67.15882 109 ft 13 kts 254°
2026-05-07 08:40 24.90440 67.15783 107 ft 15 kts 236°
2026-05-07 08:40 24.90325 67.15777 105 ft 19 kts 165°
2026-05-07 08:40 24.90295 67.15786 106 ft 0 kts 164°
2026-05-07 08:41 24.90272 67.15799 106 ft 12 kts 138°
2026-05-07 08:41 24.90276 67.15900 106 ft 15 kts 75°
2026-05-07 08:42 24.90306 67.16022 106 ft 18 kts 75°
2026-05-07 08:42 24.90330 67.16118 106 ft 21 kts 75°
2026-05-07 08:42 24.90367 67.16321 104 ft 18 kts 116°
2026-05-07 08:42 24.90303 67.16430 107 ft 18 kts 91°
2026-05-07 08:43 24.90316 67.16543 107 ft 7 kts 106°
2026-05-07 08:43 24.90283 67.16564 106 ft 7 kts 160°
2026-05-07 08:43 24.90258 67.16572 106 ft 2 kts 162°
2026-05-07 08:43 24.90246 67.16578 105 ft 1 kts 163°
2026-05-07 08:44 24.90243 67.16578 105 ft 0 kts 164°